Total_Precipitation_Accumulation
3.21 3.38 3.17 2.92 2.96 3.06 3.56 4.02 4.14 3.61 3.27 3.11 2.93 2.57 2.48 2.47 2.66 2.41 2.36 2.24 1.92 1.81 1.74 1.63 1.61 1.70 1.88 2.03 2.14 2.31 2.49 2.74 3.02 3.19 3.37 3.63 3.79 3.98
3.25 3.42 3.35 3.05 3.08 3.10 3.46 3.89 4.13 4.20 3.60 3.14 3.08 2.72 2.47 2.23 2.49 2.33 2.25 2.26 1.95 1.76 1.69 1.59 1.51 1.47 1.48 1.55 1.62 1.69 1.82 2.03 2.26 2.44 2.57 2.76 2.92 3.15
2.87 3.01 3.15 3.35 3.31 3.30 3.50 3.69 3.93 4.24 3.73 3.31 3.37 3.18 2.91 2.60 2.45 2.40 2.18 2.09 1.96 1.84 1.63 1.57 1.50 1.41 1.38 1.40 1.42 1.49 1.58 1.70 1.88 2.05 2.20 2.28 2.31 2.45
2.90 3.05 2.91 3.09 3.18 3.19 3.34 3.53 3.78 4.08 3.89 3.66 3.73 3.66 3.41 3.03 2.85 2.71 2.31 2.10 2.00 2.00 1.74 1.58 1.50 1.45 1.37 1.38 1.39 1.40 1.44 1.50 1.61 1.75 1.89 2.02 2.12 2.16
2.71 2.72 2.64 2.85 2.84 3.00 3.09 3.22 3.45 3.71 3.84 3.68 3.67 3.75 3.48 3.24 3.12 2.72 2.45 2.45 2.09 2.13 2.08 1.78 1.58 1.49 1.46 1.42 1.38 1.42 1.43 1.45 1.49 1.62 1.78 1.92 2.06 2.16
2.28 2.26 2.26 2.38 2.56 2.90 2.97 3.03 3.17 3.40 3.53 3.56 3.59 3.59 3.43 3.38 3.41 3.02 2.81 2.69 2.41 2.07 2.11 1.87 1.76 1.66 1.56 1.47 1.45 1.47 1.55 1.56 1.57 1.64 1.77 1.89 1.99 2.08
2.08 1.94 1.86 1.98 2.16 2.39 2.29 2.55 2.81 2.97 3.06 3.22 3.34 3.50 3.34 3.44 3.29 3.19 3.02 2.91 2.79 2.46 2.37 2.02 1.87 1.74 1.60 1.52 1.48 1.50 1.60 1.67 1.69 1.74 1.81 1.92 2.04 2.13
2.08 1.95 1.81 1.80 1.86 1.92 1.93 2.03 2.29 2.50 2.66 2.93 3.09 3.25 3.11 3.12 3.34 3.33 3.24 3.06 2.90 2.72 2.87 2.69 2.40 2.22 1.89 1.56 1.51 1.49 1.52 1.67 1.76 1.78 1.88 1.98 2.09 2.20
2.17 2.16 1.82 1.51 1.69 1.67 1.76 1.78 1.83 1.98 2.22 2.58 2.74 2.76 2.96 3.03 3.38 3.40 3.52 3.38 3.17 3.05 3.25 3.19 2.98 2.77 2.08 1.86 1.84 1.57 1.44 1.43 1.54 1.65 1.72 1.88 1.99 2.08
2.03 2.01 1.95 1.84 1.76 1.75 1.75 1.70 1.54 1.60 1.79 1.84 2.00 2.29 2.83 3.21 3.30 3.33 3.65 3.63 3.39 3.23 3.31 3.34 3.06 2.95 2.39 1.97 1.80 1.52 1.36 1.33 1.37 1.46 1.58 1.72 1.92 2.08
1.85 1.77 1.74 1.74 1.80 1.67 1.71 1.70 1.57 1.50 1.56 1.68 1.76 1.98 2.31 2.71 2.98 3.07 3.18 3.35 3.33 3.26 3.32 3.43 3.30 3.22 3.12 2.72 2.10 1.77 1.45 1.32 1.33 1.38 1.43 1.52 1.70 1.95
1.75 1.61 1.50 1.44 1.51 1.50 1.60 1.74 1.62 1.54 1.60 1.60 1.58 1.68 1.85 2.07 2.23 2.23 2.44 2.68 2.77 2.91 2.88 3.20 3.44 3.60 3.75 3.52 2.88 2.30 1.91 1.65 1.49 1.41 1.43 1.49 1.65 1.61
1.67 1.51 1.40 1.35 1.29 1.28 1.35 1.48 1.57 1.69 1.76 1.77 1.78 1.79 1.94 2.07 2.10 2.11 2.27 2.46 2.49 2.42 2.40 2.69 2.97 3.27 3.55 3.62 3.37 2.86 2.45 2.17 1.87 1.68 1.61 1.60 1.65 1.64
1.75 1.65 1.58 1.44 1.30 1.25 1.21 1.29 1.46 1.50 1.62 1.73 1.77 1.77 1.84 1.97 2.10 2.21 2.34 2.49 2.50 2.43 2.54 2.74 2.81 2.84 2.80 2.78 2.83 2.69 2.51 2.39 2.29 2.17 2.00 2.04 1.97 1.98
1.77 1.80 1.67 1.53 1.44 1.40 1.42 1.49 1.48 1.47 1.65 1.78 1.77 1.75 1.82 1.93 2.07 2.21 2.31 2.44 2.50 2.38 2.30 2.41 2.50 2.65 2.80 2.60 2.39 2.30 2.35 2.40 2.47 2.61 2.61 2.43 2.25 2.18
1.80 1.80 1.69 1.57 1.47 1.44 1.44 1.42 1.41 1.52 1.66 1.68 1.75 1.86 1.88 1.96 2.03 2.08 2.19 2.26 2.26 2.18 2.18 2.20 2.32 2.51 2.56 2.56 2.49 2.28 2.29 2.45 2.50 2.64 2.82 2.86 2.73 2.55
2.21 2.11 1.99 1.84 1.67 1.61 1.57 1.57 1.62 1.70 1.71 1.76 1.85 1.89 1.84 1.83 1.89 1.97 2.18 2.27 2.13 1.92 1.96 2.13 2.32 2.44 2.38 2.46 2.46 2.26 2.25 2.24 2.34 2.53 2.70 2.70 2.58 2.50
2.21 2.10 2.17 2.13 2.00 1.95 1.88 1.85 1.84 1.82 1.81 1.83 1.85 1.85 1.84 1.83 1.93 2.02 2.22 2.32 2.23 2.00 1.94 2.08 2.32 2.56 2.60 2.47 2.26 2.22 2.19 2.19 2.30 2.53 2.59 2.55 2.37 2.19
2.16 2.14 2.18 2.20 2.15 2.13 2.11 2.01 1.93 1.93 2.00 1.97 1.93 1.94 1.96 1.97 2.06 2.12 2.20 2.23 2.18 2.04 1.96 2.08 2.23 2.39 2.43 2.26 2.10 1.97 2.07 2.18 2.43 2.54 2.52 2.44 2.31 2.16
2.03 2.17 2.20 2.18 2.15 2.12 2.08 2.04 1.99 2.05 2.13 2.03 1.95 1.95 1.99 2.02 2.07 2.10 2.15 2.17 2.14 2.12 2.13 2.09 2.13 2.27 2.31 2.28 2.23 2.07 1.90 2.06 2.30 2.40 2.37 2.30 2.21 2.17
2.19 2.26 2.24 2.18 2.14 2.14 2.14 2.13 2.09 2.09 2.14 2.14 2.06 2.08 2.13 2.19 2.19 2.17 2.24 2.26 2.17 2.08 2.03 1.91 2.00 2.35 2.57 2.71 2.46 2.19 2.25 2.29 2.35 2.37 2.41 2.42 2.31 2.17
2.13 2.21 2.16 2.07 2.05 2.10 2.13 2.15 2.15 2.17 2.22 2.25 2.16 2.10 2.16 2.26 2.19 2.21 2.28 2.27 2.17 2.08 2.04 2.02 2.22 2.47 2.66 2.81 2.58 2.45 2.63 2.67 2.67 2.70 2.70 2.64 2.38 2.13
2.04 2.04 2.00 1.94 1.95 2.02 2.09 2.19 2.24 2.26 2.25 2.25 2.24 2.18 2.16 2.23 2.23 2.27 2.31 2.34 2.37 2.34 2.33 2.36 2.46 2.54 2.47 2.50 2.58 2.56 2.60 2.74 2.74 2.70 2.68 2.70 2.41 2.03